Location: Lango�lan
(48.1202°N, 3.2340°W)
Time: 20:45:34
(UTC+00:00)

IDEFIX/ARIANE 42P - Pass Details

Date: 23 October 2019
Orbit: 785 x 803 km, 98.3° (Epoch: 17 November)

Event Time Altitude Azimuth Distance (km) Brightness Sun altitude
Rises 04:15:27 0° 12° (NNE) 3,315 6.1 -25.3°
Reaches altitude 10° 04:17:48 10° 12° (NNE) 2,378 5.3 -24.9°
Maximum altitude 04:23:03 79° 287° (WNW) 814 2.4 -24.1°
Enters shadow 04:24:25 50° 211° (SSW) 999 2.8 -23.8°
